Tiempo atmosférico en la estación meteorológica de El Paso, Santa Cruz de Tenerife (844 m.)



Fecha
DESCASC
Temp. máxima en grados centígrados (hora)
DESCASC
Temp. mínima en grados centígrados (hora)
DESCASC
Temp. media en grados centígrados
DESCASC
Racha de viento máxima en m/sg (hora)
DESCASC
Velocidad máxima media en intervalos de 10 minutos(hora)
DESCASC
Precipitaciones diarias en mm
DESCASC
Precipitaciones de 00:00 a 06:00 en mm
DESCASC
Precipitaciones de 06:00 a 12:00 en mm
DESCASC
Precipitaciones de 12:00 a 18:00 en mm
DESCASC
Precipitaciones de 18:00 a 24:00 en mm
DESCASC
10-01-2020 14.4 (16:00) 9.4 (00:00) 11.9 22.5 (08:30) 10 (01:00) 1.8 0.6 1 0.2 0
07-01-2020 13.6 (16:20) 10.1 (00:00) 11.9 21.39 (06:00) 10.83 (01:10) 0.2 0 0.2 0 0
09-01-2020 14.4 (12:50) 10.7 (00:00) 12.5 20.28 (21:20) 10 (15:50) 0 0 0 0 0
08-01-2020 13.9 (14:30) 10.8 (00:00) 12.3 18.33 (06:20) 8.33 (10:40) 0 0 0 0 0
06-01-2020 14.4 (11:50) 10.2 (00:00) 12.3 17.5 (22:40) 8.89 (22:40) 0.2 0 0.2 0 0
22-12-2019 18.8 (16:50) 5.7 (06:10) 12.2 16.39 (23:40) 11.11 (23:40) 0 0 0 0 0
23-12-2019 17.9 (12:30) 9.7 (00:00) 13.8 16.39 (00:50) 10.28 (01:00) 0 0 0 0 0
12-01-2020 13.5 (13:30) 9.8 (23:59) 11.7 16.11 (07:30) 9.17 (06:00) 0.6 0 0 0.6 0
11-01-2020 14.4 (12:10) 7.2 (00:00) 10.8 15 (14:10) 8.33 (15:30) 0 0 0 0 0
05-01-2020 15.9 (13:30) 7 (00:00) 11.4 13.33 (12:30) 6.67 (13:10) 0 0 0 0 0
26-12-2019 21.7 (11:50) 13.7 (00:00) 17.7 13.06 (02:40) 7.78 (02:10) 0 0 0 0 0
02-01-2020 16.1 (12:10) 5 (00:00) 10.6 12.5 (10:20) 6.39 (10:20) 0 0 0 0 0
31-12-2019 22.8 (12:00) 8.6 (00:00) 15.7 12.22 (00:30) 7.22 (02:40) 0 0 0 0 0
04-01-2020 16.3 (15:30) 6.2 (00:00) 11.2 11.39 (12:10) 7.5 (11:00) 0 0 0 0 0
25-12-2019 19.7 (11:30) 11.8 (00:00) 15.8 10.56 (23:10) 6.94 (22:00) 0 0 0 0 0
03-01-2020 16.3 (12:10) 6.4 (00:00) 11.3 10.56 (11:30) 6.39 (11:40) 0 0 0 0 0
14-01-2020 16.4 (11:10) 6.3 (00:00) 11.3 10.28 (15:40) 5.83 (12:40) 0 0 0 0 0
17-01-2020 17.6 (13:00) 6 (00:00) 11.8 9.72 (08:20) 5.83 (06:10) 0 0 0 0 0
27-12-2019 22.6 (14:00) 10.6 (00:00) 16.6 9.44 (01:30) 5.28 (04:10) 0 0 0 0 0
01-01-2020 18.9 (12:20) 6.3 (00:00) 12.6 8.61 (13:00) 5.28 (13:00) 0 0 0 0 0
15-01-2020 16.8 (12:50) 5.2 (00:00) 11 8.33 (15:20) 5 (15:20) 0 0 0 0 0
28-12-2019 25.1 (12:00) 12.6 (00:00) 18.9 7.22 (16:00) 4.17 (16:40) 0 0 0 0 0
24-12-2019 23 (15:00) 9.9 (00:50) 16.4 7.22 (15:30) 4.44 (15:40) 0 0 0 0 0
13-01-2020 16.2 (16:30) 5 (00:00) 10.6 6.39 (00:30) 3.33 (13:20) 0 0 0 0 0
16-01-2020 16.7 (12:40) 4 (00:00) 10.4 6.39 (12:50) 3.61 (13:10) 0 0 0 0 0
29-12-2019 23.1 (12:10) 11.3 (00:00) 17.2 5.83 (15:30) 3.61 (07:50) 0 0 0 0 0
19-12-2019 18 (12:00) 6.7 (04:30) 12.3 5.83 (15:30) 3.61 (14:50) 0 0 0 0 0
21-12-2019 17.4 (13:00) 6.4 (06:10) 11.9 5.28 (12:40) 3.06 (13:40) 0 0 0 0 0
20-12-2019 18 (16:00) 7.3 (00:00) 12.7 5.28 (14:50) 3.33 (13:40) 0 0 0 0 0
30-12-2019 -- (--) -- (--) -- -- (--) -- (--) -- 0 0 -- 0

Gráficas

Temp. máximas Temp. mínimas Temp. medias Precipitaciones Rachas de viento máximas Velocidades máximas media en intervalos de 10 minutos

Datos horarios

Fecha y hora oficial Temperatura (ºC) Velocidad del viento (km/h) Dirección del viento Racha (km/h) Dirección de racha Precipitación (mm) Presión (hPa) Tendencia (hPa) Humedad (%)
2020-01-17 23:00:00 7.8 5 Sudeste 13 Este 0 -- -- 55
2020-01-17 22:00:00 8.2 3 Sudeste 13 Nordeste 0 -- -- 59
2020-01-17 21:00:00 8.6 3 Sudeste 11 Este 0 -- -- 61
2020-01-17 20:00:00 9.9 5 Este 10 Este 0 -- -- 65
2020-01-17 19:00:00 13.1 3 Sudoeste 7 Oeste 0 -- -- 55
2020-01-17 18:00:00 16 4 Oeste 12 Oeste 0 -- -- 48
2020-01-17 17:00:00 16.8 7 Oeste 22 Noroeste 0 -- -- 46
2020-01-17 16:00:00 17.4 8 Oeste 19 Oeste 0 -- -- 44
2020-01-17 15:00:00 17.1 8 Oeste 18 Oeste 0 -- -- 44
2020-01-17 14:00:00 17.2 10 Oeste 21 Oeste 0 -- -- 44
2020-01-17 13:00:00 17.6 9 Oeste 17 Oeste 0 -- -- 40
2020-01-17 12:00:00 16.2 8 Oeste 19 Oeste 0 -- -- 32
2020-01-17 11:00:00 15.7 8 Oeste 13 Oeste 0 -- -- 42
2020-01-17 10:00:00 15.2 6 Oeste 24 Sudeste 0 -- -- 41
2020-01-17 09:00:00 12.5 12 Sudeste 35 Sudeste 0 -- -- 23
2020-01-17 08:00:00 11 19 Sudeste 32 Sudeste 0 -- -- 36
2020-01-17 07:00:00 10.7 17 Sudeste 27 Sudeste 0 -- -- 32
2020-01-17 06:00:00 9.7 14 Sudeste 24 Sudeste 0 -- -- 34
2020-01-17 05:00:00 6.3 4 Este 15 Este 0 -- -- 43
2020-01-17 04:00:00 6.9 5 Sudeste 13 Sudeste 0 -- -- 51
2020-01-17 03:00:00 8.7 8 Sudeste 17 Sudeste 0 -- -- 30
2020-01-17 02:00:00 7.4 3 Este 19 Sudeste 0 -- -- 47
2020-01-17 01:00:00 7.1 5 Este 12 Este 0 -- -- 55
2020-01-17 00:00:00 7.2 2 Nordeste 10 Nordeste 0 -- -- 56
2020-01-16 23:00:00 8.8 6 Nordeste 18 Sudeste 0 -- -- 56
2020-01-16 22:00:00 8.3 5 Sudeste 13 Sudeste 0 -- -- 51
2020-01-16 21:00:00 7.7 4 Este 7 Este 0 -- -- 65
2020-01-16 20:00:00 9 3 Este 7 Nordeste 0 -- -- 63
2020-01-16 19:00:00 12.1 3 Sudeste 10 Oeste 0 -- -- 56
2020-01-16 18:00:00 15.2 6 Oeste 18 Oeste 0 -- -- 46
2020-01-16 17:00:00 15.8 8 Noroeste 18 Oeste 0 -- -- 44
2020-01-16 16:00:00 15.8 10 Oeste 20 Oeste 0 -- -- 44
2020-01-16 15:00:00 15.9 8 Oeste 23 Oeste 0 -- -- 42
2020-01-16 14:00:00 16 10 Oeste 22 Oeste 0 -- -- 45
2020-01-16 13:00:00 16.4 12 Oeste 23 Oeste 0 -- -- 39
2020-01-16 12:00:00 15.8 7 Oeste 14 Oeste 0 -- -- 32
2020-01-16 11:00:00 15.6 2 Norte 10 Sudeste 0 -- -- 30
2020-01-16 10:00:00 11.8 5 Sudeste 11 Este 0 -- -- 40
2020-01-16 09:00:00 5.1 5 Este 9 Este 0 -- -- 53
2020-01-16 08:00:00 4.7 5 Sudeste 13 Este 0 -- -- 55
2020-01-16 07:00:00 4.1 6 Este 10 Sudeste 0 -- -- 55
2020-01-16 06:00:00 4.1 5 Este 11 Este 0 -- -- 55
2020-01-16 05:00:00 5 5 Este 10 Este 0 -- -- 58
2020-01-16 04:00:00 5.4 4 Este 9 Este 0 -- -- 64
2020-01-16 03:00:00 4.9 6 Este 10 Este 0 -- -- 65
2020-01-16 02:00:00 5.2 5 Este 8 Este 0 -- -- 71
2020-01-16 01:00:00 6.3 4 Este 10 Este 0 -- -- 69
2020-01-16 00:00:00 6 4 Sudeste 9 Este 0 -- -- 70
2020-01-15 23:00:00 6.5 6 Este 9 Este 0 -- -- 69
2020-01-15 22:00:00 7.1 4 Nordeste 13 Este 0 -- -- 68
2020-01-15 21:00:00 7.8 6 Este 9 Este 0 -- -- 68
2020-01-15 20:00:00 9.3 5 Este 9 Este 0 -- -- 73
2020-01-15 19:00:00 12.3 0 Calma 14 Oeste 0 -- -- 64
2020-01-15 18:00:00 14.2 9 Oeste 25 Oeste 0 -- -- 49
2020-01-15 17:00:00 15.3 13 Oeste 23 Oeste 0 -- -- 52
2020-01-15 16:00:00 15.4 14 Oeste 30 Oeste 0 -- -- 51
2020-01-15 15:00:00 15.7 16 Oeste 29 Oeste 0 -- -- 55
2020-01-15 14:00:00 16.1 14 Oeste 26 Oeste 0 -- -- 47
2020-01-15 13:00:00 16.6 10 Oeste 19 Oeste 0 -- -- 39
2020-01-15 12:00:00 15.8 10 Oeste 21 Oeste 0 -- -- 38
2020-01-15 11:00:00 15.7 8 Sudeste 20 Este 0 -- -- 32
2020-01-15 10:00:00 14 3 Sudeste 12 Norte 0 -- -- 38
2020-01-15 09:00:00 8.1 7 Nordeste 14 Este 0 -- -- 47
2020-01-15 08:00:00 5.9 5 Sudeste 11 Sudeste 0 -- -- 56
2020-01-15 07:00:00 5.4 5 Este 9 Este 0 -- -- 59
2020-01-15 06:00:00 5.4 6 Este 10 Este 0 -- -- 61
2020-01-15 05:00:00 6 6 Sudeste 14 Sudeste 0 -- -- 58
2020-01-15 04:00:00 8.5 8 Sudeste 14 Sudeste 0 -- -- 51
2020-01-15 03:00:00 7.7 8 Este 13 Este 0 -- -- 54
2020-01-15 02:00:00 7.2 6 Este 11 Sudeste 0 -- -- 56
2020-01-15 01:00:00 6.8 5 Este 10 Este 0 -- -- 54
2020-01-15 00:00:00 6.3 5 Sudeste 12 Este 0 -- -- 62
2020-01-14 23:00:00 7 5 Este 10 Este 0 -- -- 61
2020-01-14 22:00:00 7.8 5 Sudeste 9 Sudeste 0 -- -- 61
2020-01-14 21:00:00 8.7 5 Este 12 Este 0 -- -- 67
2020-01-14 20:00:00 10.1 4 Sudeste 12 Sudeste 0 -- -- 72
2020-01-14 19:00:00 12.4 4 Noroeste 17 Noroeste 0 -- -- 61
2020-01-14 18:00:00 14.9 12 Noroeste 23 Oeste 0 -- -- 55
2020-01-14 17:00:00 15.5 15 Oeste 30 Oeste 0 -- -- 51
2020-01-14 16:00:00 15.5 20 Oeste 37 Oeste 0 -- -- 48
2020-01-14 15:00:00 15.8 19 Oeste 37 Oeste 0 -- -- 46
2020-01-14 14:00:00 16.3 15 Oeste 32 Oeste 0 -- -- 56
2020-01-14 13:00:00 16 18 Oeste 33 Sudoeste 0 -- -- 48
2020-01-14 12:00:00 16.1 17 Oeste 30 Oeste 0 -- -- 43
2020-01-14 11:00:00 15.9 9 Oeste 19 Noroeste 0 -- -- 38
2020-01-14 10:00:00 13 3 Nordeste 11 Este 0 -- -- 48
2020-01-14 09:00:00 8 9 Este 13 Este 0 -- -- 56
2020-01-14 08:00:00 8.6 9 Este 18 Nordeste 0 -- -- 48
2020-01-14 07:00:00 8.9 9 Este 15 Nordeste 0 -- -- 45
2020-01-14 06:00:00 7.7 5 Sudeste 13 Este 0 -- -- 53
2020-01-14 05:00:00 7.7 3 Sudeste 12 Este 0 -- -- 51
2020-01-14 04:00:00 8.9 6 Este 17 Nordeste 0 -- -- 51
2020-01-14 03:00:00 8.1 7 Sudeste 12 Sudeste 0 -- -- 58
2020-01-14 02:00:00 9 5 Este 12 Sudeste 0 -- -- 58
2020-01-14 01:00:00 9.2 6 Sudeste 11 Sur 0 -- -- 65
2020-01-14 00:00:00 8.2 7 Este 14 Este 0 -- -- 67
2020-01-13 23:00:00 7.3 5 Este 11 Este 0 -- -- 73
2020-01-13 22:00:00 8.2 5 Este 9 Este 0 -- -- 70
2020-01-13 21:00:00 9.9 2 Este 10 Sudeste 0 -- -- 62
2020-01-13 20:00:00 10.7 5 Este 9 Este 0 -- -- 60
2020-01-13 19:00:00 12.3 4 Este 14 Oeste 0 -- -- 69
2020-01-13 18:00:00 15.3 9 Oeste 15 Oeste 0 -- -- 58
2020-01-13 17:00:00 16 6 Oeste 16 Oeste 0 -- -- 54
2020-01-13 16:00:00 16 9 Oeste 20 Oeste 0 -- -- 53
2020-01-13 15:00:00 16.1 10 Oeste 19 Oeste 0 -- -- 54
2020-01-13 14:00:00 15.8 10 Oeste 22 Oeste 0 -- -- 55
2020-01-13 13:00:00 15.8 11 Oeste 18 Oeste 0 -- -- 54
2020-01-13 12:00:00 15.5 8 Oeste 15 Oeste 0 -- -- 56
2020-01-13 11:00:00 15.3 5 Oeste 13 Sudeste 0 -- -- 52
2020-01-13 10:00:00 12.7 4 Este 21 Sudeste 0 -- -- 62
2020-01-13 09:00:00 8.1 4 Este 20 Sudeste 0 -- -- 67
2020-01-13 08:00:00 5.6 6 Este 10 Este 0 -- -- 78
2020-01-13 07:00:00 5.4 6 Este 10 Nordeste 0 -- -- 83
2020-01-13 06:00:00 5.6 5 Este 10 Sudeste 0 -- -- 81
2020-01-13 05:00:00 6 5 Sudeste 9 Sudeste 0 -- -- 83
2020-01-13 04:00:00 7 5 Este 12 Sudeste 0 -- -- 77
2020-01-13 03:00:00 8.3 10 Sudeste 17 Este 0 -- -- 83
2020-01-13 02:00:00 7.8 3 Sudeste 12 Sudeste 0 -- -- 87
2020-01-13 01:00:00 8.9 5 Este 23 Este 0 -- -- 85
2020-01-13 00:00:00 9.8 7 Este 33 Este 0 -- -- 83
2020-01-12 23:00:00 10.7 15 Este 32 Este 0 -- -- 83
2020-01-12 22:00:00 11.2 20 Este 39 Este 0 -- -- 84
2020-01-12 21:00:00 12.1 18 Este 40 Este 0 -- -- 80
2020-01-12 20:00:00 11.5 19 Este 43 Este 0 -- -- 79
2020-01-12 19:00:00 11.3 24 Este 45 Este 0 -- -- 76
2020-01-12 18:00:00 11.5 18 Este 34 Este 0 -- -- 81
2020-01-12 17:00:00 11.6 21 Este 35 Este 0 -- -- 84
2020-01-12 16:00:00 12.3 18 Este 31 Este 0 -- -- 83
2020-01-12 15:00:00 11.5 13 Este 22 Este 0.6 -- -- 82
2020-01-12 14:00:00 13.4 7 Oeste 22 Sudeste 0 -- -- 81
2020-01-12 13:00:00 13.2 15 Sudeste 41 Este 0 -- -- 76
2020-01-12 12:00:00 12.6 28 Este 48 Este 0 -- -- 78
2020-01-12 11:00:00 12.4 24 Este 43 Este 0 -- -- 79
2020-01-12 10:00:00 12.5 19 Este 48 Este 0 -- -- 72
2020-01-12 09:00:00 10.6 22 Este 45 Este 0 -- -- 80
2020-01-12 08:00:00 11 22 Este 58 Este 0 -- -- 82
2020-01-12 07:00:00 10.6 28 Este 53 Este 0 -- -- 85
2020-01-12 06:00:00 10.9 33 Este 54 Este 0 -- -- 80
2020-01-12 05:00:00 10.9 28 Este 50 Este 0 -- -- 79
2020-01-12 04:00:00 10.5 17 Este 41 Este 0 -- -- 83
2020-01-12 03:00:00 10.6 22 Este 39 Este 0 -- -- 79
2020-01-12 02:00:00 10.6 15 Este 36 Este 0 -- -- 80
2020-01-12 01:00:00 10.5 21 Este 49 Este 0 -- -- 82
2020-01-12 00:00:00 10.4 13 Este 28 Este 0 -- -- 87
2020-01-11 23:00:00 11 14 Este 42 Nordeste 0 -- -- 81
2020-01-11 22:00:00 10.8 14 Este 38 Este 0 -- -- 85
2020-01-11 21:00:00 10.7 14 Este 37 Este 0 -- -- 86
2020-01-11 20:00:00 11 18 Este 48 Este 0 -- -- 86
2020-01-11 19:00:00 11.4 22 Este 42 Este 0 -- -- 80
2020-01-11 18:00:00 11.9 23 Este 44 Este 0 -- -- 84
2020-01-11 17:00:00 13.1 22 Este 42 Este 0 -- -- 74
2020-01-11 16:00:00 12.9 24 Este 50 Este 0 -- -- 78
2020-01-11 15:00:00 13.4 27 Este 54 Este 0 -- -- 76
2020-01-11 14:00:00 13.1 26 Este 47 Este 0 -- -- 75
2020-01-11 13:00:00 13 20 Este 39 Este 0 -- -- 80
2020-01-11 12:00:00 14.3 18 Este 38 Nordeste 0 -- -- 71
2020-01-11 11:00:00 13.5 18 Este 41 Este 0 -- -- 70
2020-01-11 10:00:00 11.9 18 Este 44 Este 0 -- -- 76
2020-01-11 09:00:00 9.9 15 Este 30 Este 0 -- -- 83
2020-01-11 08:00:00 9.5 8 Este 24 Este 0 -- -- 85
2020-01-11 07:00:00 8 11 Este 22 Este 0 -- -- 93
2020-01-11 06:00:00 7.8 4 Este 10 Nordeste 0 -- -- 86
2020-01-11 05:00:00 9.8 7 Este 53 Este 0 -- -- 76
2020-01-11 04:00:00 10.7 15 Este 30 Este 0 -- -- 88
2020-01-11 03:00:00 10.7 7 Noroeste 36 Este 0 -- -- 82
2020-01-11 02:00:00 12 18 Este 48 Este 0 -- -- 88
2020-01-11 01:00:00 10.6 15 Este 31 Este 0 -- -- 93
2020-01-11 00:00:00 10.6 5 Nordeste 44 Este 0 -- -- 84
2020-01-10 23:00:00 10.6 17 Este 36 Este 0 -- -- 91
2020-01-10 22:00:00 11.1 9 Este 35 Este 0 -- -- 79
2020-01-10 21:00:00 11.7 21 Este 47 Este 0 -- -- 80
2020-01-10 20:00:00 12 27 Este 55 Sudeste 0 -- -- 75
2020-01-10 19:00:00 11.8 35 Este 53 Este 0 -- -- 82
2020-01-10 18:00:00 12.4 31 Este 55 Sudeste 0 -- -- 82
2020-01-10 17:00:00 13.4 29 Este 52 Sudeste 0 -- -- 84
2020-01-10 16:00:00 14.4 26 Este 49 Este 0 -- -- 80
2020-01-10 15:00:00 13.8 20 Este 50 Sudeste 0 -- -- 90
2020-01-10 14:00:00 14 25 Este 57 Este 0 -- -- 83
2020-01-10 13:00:00 13.3 27 Este 46 Este 0.2 -- -- 85
2020-01-10 12:00:00 12 23 Este 62 Este 0.6 -- -- 88
2020-01-10 11:00:00 12.7 28 Este 58 Este 0.2 -- -- 85
2020-01-10 10:00:00 12.1 29 Este 58 Este 0 -- -- 86
2020-01-10 09:00:00 12.3 28 Este 81 Sudeste 0 -- -- 78
2020-01-10 08:00:00 11.8 27 Este 58 Este 0 -- -- 82
2020-01-10 07:00:00 11.8 31 Este 64 Este 0.2 -- -- 87
2020-01-10 06:00:00 11.9 27 Este 56 Nordeste 0.6 -- -- 90
2020-01-10 05:00:00 12.4 26 Este 66 Este 0 -- -- 77
2020-01-10 04:00:00 12.2 24 Este 58 Este 0 -- -- 81
2020-01-10 03:00:00 12.5 25 Este 59 Este 0 -- -- 77
2020-01-10 02:00:00 11.9 24 Este 51 Nordeste 0 -- -- 84
2020-01-10 01:00:00 12.6 36 Este 63 Este 0 -- -- 70
2020-01-10 00:00:00 12.2 25 Este 67 Este 0 -- -- 70
2020-01-09 23:00:00 12 29 Este 56 Este 0 -- -- 83
2020-01-09 22:00:00 12.4 28 Este 73 Este 0 -- -- 69
2020-01-09 21:00:00 12 32 Este 59 Este 0 -- -- 67
2020-01-09 20:00:00 12 35 Este 56 Este 0 -- -- 67
2020-01-09 19:00:00 11.9 31 Este 60 Este 0 -- -- 66
2020-01-09 18:00:00 11.9 35 Este 59 Este 0 -- -- 69
2020-01-09 17:00:00 13 31 Este 57 Sudeste 0 -- -- 74
2020-01-09 16:00:00 13.3 30 Este 62 Sudeste 0 -- -- 72
2020-01-09 15:00:00 13.6 35 Este 65 Sudeste 0 -- -- 70
2020-01-09 14:00:00 14.2 28 Este 55 Este 0 -- -- 66
2020-01-09 13:00:00 14.2 25 Este 54 Este 0 -- -- 64
2020-01-09 12:00:00 12.7 34 Este 56 Este 0 -- -- 70
2020-01-09 11:00:00 12.1 22 Este 57 Este 0 -- -- 73
2020-01-09 10:00:00 11.3 19 Este 68 Sudeste 0 -- -- 83
2020-01-09 09:00:00 11 22 Este 54 Este 0 -- -- 84
2020-01-09 08:00:00 11.2 27 Este 60 Este 0 -- -- 71
2020-01-09 07:00:00 10.9 27 Este 54 Sudeste 0 -- -- 81
2020-01-09 06:00:00 11 34 Este 62 Sudeste 0 -- -- 74
2020-01-09 05:00:00 11.6 24 Este 52 Este 0 -- -- 73
2020-01-09 04:00:00 11.4 23 Este 50 Este 0 -- -- 75
2020-01-09 03:00:00 11.7 22 Este 50 Este 0 -- -- 71
2020-01-09 02:00:00 11.9 15 Este 48 Este 0 -- -- 65
2020-01-09 01:00:00 11.6 21 Este 46 Este 0 -- -- 70
2020-01-09 00:00:00 11.9 14 Nordeste 42 Norte 0 -- -- 61
2020-01-08 23:00:00 11.8 21 Este 49 Este 0 -- -- 68
2020-01-08 22:00:00 11.9 10 Este 35 Este 0 -- -- 70
2020-01-08 21:00:00 12.5 13 Este 37 Este 0 -- -- 59
2020-01-08 20:00:00 11.6 24 Este 40 Este 0 -- -- 71
2020-01-08 19:00:00 11.6 15 Sudeste 40 Este 0 -- -- 72
2020-01-08 18:00:00 12.1 24 Este 59 Este 0 -- -- 65
2020-01-08 17:00:00 13.1 23 Este 41 Este 0 -- -- 71
2020-01-08 16:00:00 13.5 23 Este 44 Este 0 -- -- 70
2020-01-08 15:00:00 13.8 29 Este 45 Este 0 -- -- 67
2020-01-08 14:00:00 13.6 23 Este 41 Sudeste 0 -- -- 68
2020-01-08 13:00:00 13.5 24 Este 49 Este 0 -- -- 73
2020-01-08 12:00:00 11.9 22 Este 52 Sudeste 0 -- -- 78
2020-01-08 11:00:00 12.1 23 Este 50 Este 0 -- -- 76
2020-01-08 10:00:00 11.7 18 Este 47 Nordeste 0 -- -- 74
2020-01-08 09:00:00 11.1 23 Este 50 Este 0 -- -- 73
2020-01-08 08:00:00 11.1 22 Este 48 Este 0 -- -- 76
2020-01-08 07:00:00 11.1 24 Este 66 Este 0 -- -- 67
2020-01-08 06:00:00 10.9 22 Este 50 Este 0 -- -- 76
2020-01-08 05:00:00 11.1 18 Este 49 Nordeste 0 -- -- 70
2020-01-08 04:00:00 11.3 18 Este 41 Este 0 -- -- 66
2020-01-08 03:00:00 11 18 Este 40 Este 0 -- -- 64
2020-01-08 02:00:00 11 21 Este 49 Este 0 -- -- 69
2020-01-08 01:00:00 11.6 15 Este 48 Este 0 -- -- 71
2020-01-08 00:00:00 11.9 11 Este 51 Este 0 -- -- 75
2020-01-07 23:00:00 11.6 16 Este 43 Sudeste 0 -- -- 77
2020-01-07 22:00:00 11.5 13 Este 38 Sudeste 0 -- -- 67
2020-01-07 21:00:00 11.4 16 Este 39 Este 0 -- -- 64
2020-01-07 20:00:00 11.7 14 Este 41 Este 0 -- -- 70
2020-01-07 19:00:00 11.9 9 Este 35 Sudeste 0 -- -- 73
2020-01-07 18:00:00 12.5 9 Este 36 Este 0 -- -- 71
2020-01-07 17:00:00 13.2 18 Este 40 Este 0 -- -- 70
2020-01-07 16:00:00 12.9 20 Sudeste 48 Este 0 -- -- 68
2020-01-07 15:00:00 12.7 18 Este 47 Sudeste 0 -- -- 63
2020-01-07 14:00:00 12.7 20 Nordeste 47 Nordeste 0 -- -- 64
2020-01-07 13:00:00 12.6 16 Nordeste 53 Nordeste 0 -- -- 69
2020-01-07 12:00:00 12.1 10 Este 55 Este 0 -- -- 76
2020-01-07 11:00:00 11.9 20 Este 62 Nordeste 0 -- -- 69
2020-01-07 10:00:00 11.3 23 Este 53 Este 0 -- -- 69
2020-01-07 09:00:00 10.9 21 Nordeste 45 Este 0 -- -- 72
2020-01-07 08:00:00 10.6 21 Este 50 Nordeste 0.2 -- -- 65
2020-01-07 07:00:00 10.7 22 Este 55 Nordeste 0 -- -- 75
2020-01-07 06:00:00 11.9 30 Este 77 Este 0 -- -- 65
2020-01-07 05:00:00 11.7 27 Este 71 Este 0 -- -- 57
2020-01-07 04:00:00 11.5 32 Este 66 Nordeste 0 -- -- 64
2020-01-07 03:00:00 11 30 Este 62 Este 0 -- -- 64
2020-01-07 02:00:00 11 34 Este 62 Este 0 -- -- 71
2020-01-07 01:00:00 11.4 32 Este 62 Este 0 -- -- 66
2020-01-07 00:00:00 10.7 22 Este 48 Este 0 -- -- 78
2020-01-06 23:00:00 13 28 Nordeste 63 Nordeste 0 -- -- 61
2020-01-06 22:00:00 11.8 25 Este 54 Este 0 -- -- 62
2020-01-06 21:00:00 10.7 8 Este 31 Este 0 -- -- 73
2020-01-06 20:00:00 10.9 0 Calma 46 Sudeste 0 -- -- 77
2020-01-06 19:00:00 11.3 15 Este 39 Este 0 -- -- 78
2020-01-06 18:00:00 12.3 22 Este 39 Sudeste 0 -- -- 77
2020-01-06 17:00:00 12.8 19 Este 41 Este 0 -- -- 77
2020-01-06 16:00:00 13.9 22 Sudeste 41 Este 0 -- -- 75
2020-01-06 15:00:00 12.9 20 Sudeste 39 Este 0 -- -- 82
2020-01-06 14:00:00 13.4 25 Este 42 Este 0 -- -- 77
2020-01-06 13:00:00 13.1 15 Este 54 Este 0 -- -- 83
2020-01-06 12:00:00 14.3 19 Este 42 Este 0 -- -- 74
2020-01-06 11:00:00 12.6 23 Este 60 Este 0.2 -- -- 84
2020-01-06 10:00:00 11.5 21 Este 36 Este 0 -- -- 91
2020-01-06 09:00:00 11.4 18 Este 43 Este 0 -- -- 80